DL3TR-13 Weather Reports


time (UTC)temp
C
wind
direction
speed
KPH
gust
KPH
rain 1hr
cm
rain 24hr
cm
rain mn
cm
humidity
%
barometer
mb
20260507011312 7 200 0.0 0.0 0.00 0.00 0.00 91 1010.4
20260507010311 7 200 0.0 3.2 0.00 0.00 0.00 91 1010.4
20260507005311 6 200 0.0 0.0 0.00 0.00 0.00 90 1010.3
20260507004311 7 200 0.0 1.6 0.00 0.00 0.00 90 1010.2
20260507003311 7 207 0.0 1.6 0.00 0.00 0.00 91 1010.1
20260507002311 7 207 0.0 1.6 0.00 0.00 0.00 90 1010.2
20260507001311 7 207 0.0 3.2 0.00 0.00 0.00 90 1010.2
20260507000311 6 207 1.6 4.8 0.00 0.00 0.00 90 1010.4
20260506235311 7 207 1.6 4.8 0.00 0.00 0.00 90 1010.4
20260506234311 7 206 3.2 8.0 0.00 0.00 0.00 90 1010.4
20260506233311 7 192 0.0 1.6 0.00 0.00 0.00 90 1010.4
20260506232311 7 191 0.0 3.2 0.00 0.00 0.00 90 1010.5
20260506231311 6 204 0.0 6.4 0.00 0.00 0.00 90 1010.3
20260506230311 6 219 0.0 6.4 0.00 0.00 0.00 89 1010.2
20260506225311 7 206 3.2 9.7 0.00 0.00 0.00 88 1010.2
20260506224311 7 210 4.8 9.7 0.00 0.00 0.00 88 1010.2
20260506223311 7 216 4.8 11.3 0.00 0.00 0.00 88 1010.2
20260506222311 7 211 4.8 11.3 0.00 0.00 0.00 88 1010.1
20260506221311 7 213 8.0 11.3 0.00 0.00 0.00 88 1010.2
20260506220311 7 223 6.4 11.3 0.00 0.00 0.00 90 1010.2
20260506215311 7 216 4.8 12.9 0.00 0.13 0.13 91 1010.2
20260506214311 7 219 4.8 8.0 0.00 0.13 0.13 90 1010.1
20260506213311 7 220 1.6 8.0 0.00 0.13 0.13 89 1010.0
20260506212311 7 213 4.8 11.3 0.00 0.13 0.13 90 1010.0
20260506211311 7 227 4.8 9.7 0.00 0.13 0.13 89 1010.0
20260506210311 7 214 4.8 11.3 0.00 0.13 0.13 90 1009.9
20260506205311 7 196 6.4 9.7 0.00 0.13 0.13 90 1009.8
20260506204326 7 213 4.8 8.0 0.00 0.13 0.13 91 1009.8
20260506203311 7 211 3.2 6.4 0.00 0.13 0.13 91 1009.8
20260506202310 7 205 4.8 11.3 0.00 0.13 0.13 91 1009.7
20260506201311 7 202 4.8 6.4 0.00 0.13 0.13 90 1009.6
20260506200311 7 218 3.2 9.7 0.00 0.13 0.13 90 1009.5
20260506195311 7 215 4.8 6.4 0.00 0.13 0.13 90 1009.5
20260506194310 8 203 1.6 9.7 0.00 0.13 0.13 89 1009.5
20260506193311 8 231 6.4 8.0 0.00 0.13 0.13 89 1009.4
20260506192311 8 214 3.2 11.3 0.00 0.13 0.13 90 1009.2
20260506191311 8 202 3.2 6.4 0.00 0.13 0.13 90 1009.1
20260506190311 8 215 1.6 6.4 0.00 0.13 0.13 89 1008.8
20260506185311 8 221 3.2 6.4 0.00 0.13 0.13 89 1008.6
20260506184310 8 213 4.8 6.4 0.00 0.13 0.13 89 1008.6
20260506183311 8 226 3.2 6.4 0.00 0.13 0.13 89 1008.6
20260506182310 8 226 3.2 9.7 0.00 0.13 0.13 88 1008.4
20260506181311 8 228 4.8 11.3 0.00 0.13 0.13 87 1008.2
20260506180310 9 238 6.4 14.5 0.00 0.13 0.13 86 1008.2
20260506175310 9 240 8.0 12.9 0.00 0.13 0.13 87 1008.1
20260506174311 10 240 8.0 9.7 0.00 0.13 0.13 87 1008.2
20260506173310 10 235 4.8 12.9 0.00 0.13 0.13 87 1008.0
20260506172310 10 203 6.4 14.5 0.00 0.13 0.13 87 1008.0
20260506171310 10 240 8.0 17.7 0.00 0.13 0.13 87 1007.8
20260506170311 10 219 11.3 17.7 0.00 0.13 0.13 86 1007.6
20260506165310 10 216 9.7 12.9 0.00 0.13 0.13 87 1007.6
20260506164310 10 221 6.4 11.3 0.00 0.13 0.13 89 1007.2
20260506163310 9 231 6.4 14.5 0.00 0.13 0.13 89 1007.6
20260506162310 9 227 9.7 12.9 0.00 0.13 0.13 88 1007.6
20260506161310 9 236 6.4 19.3 0.00 0.13 0.13 89 1007.9
20260506160310 9 235 11.3 20.9 0.00 0.13 0.13 88 1007.9
20260506155311 9 199 11.3 24.1 0.00 0.13 0.13 88 1007.8
20260506154310 10 230 11.3 20.9 0.00 0.13 0.13 88 1007.6
20260506153310 10 239 9.7 25.7 0.03 0.13 0.13 89 1007.1
20260506152311 9 210 11.3 20.9 0.03 0.13 0.13 88 1006.9
20260506151310 10 227 9.7 29.0 0.03 0.13 0.13 90 1006.8
20260506150310 9 234 12.9 29.0 0.03 0.13 0.13 88 1006.6
20260506145310 9 279 11.3 37.0 0.03 0.13 0.13 87 1006.5
20260506144311 10 252 19.3 37.0 0.03 0.13 0.13 83 1006.1
20260506143311 12 219 12.9 37.0 0.03 0.10 0.10 76 1005.8
20260506142310 16 232 11.3 11.3 0.03 0.10 0.10 76 1004.8
20260506141310 15 234 6.4 9.7 0.03 0.10 0.10 76 1004.7
20260506140310 16 231 3.2 6.4 0.03 0.10 0.10 75 1004.4
20260506135311 15 170 3.2 6.4 0.05 0.10 0.10 73 1004.3
20260506134311 15 196 3.2 8.0 0.05 0.10 0.10 73 1004.4
20260506133310 14 144 1.6 9.7 0.05 0.08 0.08 82 1004.4
20260506132311 13 89 3.2 11.3 0.08 0.08 0.08 84 1004.5
20260506131310 13 94 6.4 4.8 0.08 0.08 0.08 85 1004.5
20260506130310 12 221 1.6 3.2 0.08 0.08 0.08 84 1005.0
20260506125310 12 221 1.6 3.2 0.05 0.05 0.05 84 1005.1
20260506124310 12 221 0.0 8.0 0.05 0.05 0.05 82 1005.0
20260506123310 13 247 3.2 4.8 0.03 0.03 0.03 78 1004.9
20260506122310 14 246 3.2 4.8 0.00 0.00 0.00 71 1004.7
20260506121310 15 328 1.6 6.4 0.00 0.00 0.00 68 1004.4
20260506120310 15 5 1.6 9.7 0.00 0.00 0.00 67 1004.2
20260506115310 15 5 6.4 11.3 0.00 0.00 0.00 67 1004.1
20260506114310 15 348 4.8 14.5 0.00 0.00 0.00 66 1003.9
20260506113310 15 338 3.2 8.0 0.00 0.00 0.00 67 1004.1
20260506112310 15 315 3.2 9.7 0.00 0.00 0.00 66 1004.1
20260506111310 15 5 4.8 8.0 0.00 0.00 0.00 68 1004.6
20260506110310 15 340 3.2 11.3 0.00 0.00 0.00 66 1004.3
20260506105310 15 350 4.8 8.0 0.00 0.00 0.00 66 1004.5
20260506104311 15 346 0.0 12.9 0.00 0.00 0.00 67 1004.6
20260506103310 15 355 3.2 9.7 0.00 0.00 0.00 68 1004.6
20260506102310 15 348 1.6 8.0 0.00 0.00 0.00 69 1004.6
20260506101310 15 346 3.2 11.3 0.00 0.00 0.00 71 1004.7
20260506100310 14 347 6.4 9.7 0.00 0.00 0.00 75 1004.6
20260506095310 13 348 4.8 8.0 0.00 0.00 0.00 75 1004.9
20260506094310 13 355 1.6 11.3 0.00 0.00 0.00 73 1004.7
20260506093310 13 346 4.8 6.4 0.00 0.00 0.00 76 1004.9
20260506092310 13 5 4.8 4.8 0.00 0.00 0.00 76 1005.1
20260506091310 13 350 1.6 8.0 0.00 0.00 0.00 75 1005.1
20260506090310 13 17 4.8 9.7 0.00 0.00 0.00 76 1005.1
20260506085310 12 315 4.8 4.8 0.00 0.00 0.00 78 1005.1
20260506084310 12 315 1.6 6.4 0.00 0.00 0.00 79 1005.1
20260506083310 12 360 0.0 8.0 0.00 0.00 0.00 80 1005.1
20260506082310 12 41 3.2 6.4 0.00 0.00 0.00 79 1005.0
20260506081310 12 28 0.0 8.0 0.00 0.00 0.00 81 1005.0
20260506080310 12 20 4.8 8.0 0.00 0.00 0.00 83 1004.9
20260506073311 11 80 0.0 0.0 0.00 0.00 0.00 88 1005.1
20260506072325 11 80 0.0 4.8 0.00 0.00 0.00 89 1005.1
20260506071310 10 81 1.6 3.2 0.00 0.00 0.00 90 1005.1
20260506070310 10 81 1.6 8.0 0.00 0.00 0.00 90 1004.9
20260506062310 10 101 0.0 3.2 0.00 0.00 0.00 91 1005.4
20260506061310 10 101 1.6 3.2 0.00 0.00 0.00 91 1005.4
20260506060310 9 101 0.0 4.8 0.00 0.00 0.00 91 1005.4
20260506051310 8 101 1.6 4.8 0.00 0.00 0.00 93 1005.6
20260506050310 8 101 0.0 3.2 0.00 0.00 0.00 94 1005.7
20260506044310 8 101 0.0 3.2 0.00 0.00 0.00 94 1005.9
20260506043311 7 101 1.6 3.2 0.00 0.00 0.00 93 1006.0
20260506042310 7 101 0.0 3.2 0.00 0.00 0.00 93 1006.1
20260506041310 7 101 1.6 4.8 0.00 0.00 0.00 93 1006.1
20260506040310 7 101 3.2 3.2 0.00 0.00 0.00 93 1006.3
20260506035310 7 101 1.6 4.8 0.00 0.00 0.00 93 1006.4
20260506034310 7 101 1.6 3.2 0.00 0.00 0.00 93 1006.4
20260506033311 8 101 0.0 3.2 0.00 0.00 0.00 93 1006.5
20260506032310 8 101 1.6 4.8 0.00 0.00 0.00 94 1006.5
20260506031310 8 101 3.2 4.8 0.00 0.00 0.00 94 1006.6
20260506030310 7 107 1.6 3.2 0.00 0.00 0.00 93 1006.8
20260506025310 8 107 0.0 3.2 0.00 0.00 0.00 93 1007.1
20260506024310 8 107 0.0 0.0 0.00 0.00 0.00 94 1007.1
20260506023311 7 107 0.0 0.0 0.00 0.00 0.00 93 1007.1
20260506022310 8 107 0.0 0.0 0.00 0.00 0.00 93 1007.2
20260506021310 8 107 0.0 4.8 0.00 0.00 0.00 93 1007.3
20260506020310 7 107 1.6 1.6 0.00 0.00 0.00 93 1007.3
20260506015310 7 107 0.0 0.0 0.00 0.00 0.00 92 1007.4
20260506014310 8 107 0.0 0.0 0.00 0.00 0.00 93 1007.4
20260506013311 8 107 0.0 3.2 0.00 0.00 0.00 93 1007.6
20260506012310 8 107 0.0 3.2 0.00 0.00 0.00 93 1007.6